Flag for Canada Weather past 2 weeks in Campbell River, British Columbia, Canada

Now
43 °F

Passing clouds.


Feels Like: 39 °F
Forecast: 35 / 50 °F
Wind: 6 mph from West

Location: Campbell River Airport

Current Time: Apr 1, 2015 at 10:28:42 PM

Latest Report: Apr 1, 2015 at 9:00 PM


Visibility: 30 mi

Pressure: 30.28 "Hg

Humidity: 87%

Dew point: 39 °F

Location of Campbell RiverLocation

Historic Weather in Campbell River — Graph

°F

Campbell River temperature yesterday

Maximum temperature yesterday: 50 °F (at 11:00 AM)
Minimum temperature yesterday: 37 °F (at 6:00 AM)
Average temperature yesterday: 45 °F

Past Weeks' High & Low Weather Summary

 TemperatureHumidityPressure
High59 °F (Mar 27, 12:00 PM)100% (Mar 18, 6:00 AM)30.28 "Hg (Mar 18, 6:00 AM)
Low30 °F (Mar 18, 6:00 AM)58% (Mar 21, 4:00 PM)29.72 "Hg (Mar 20, 6:00 PM)
Average47 °F87%30.04 "Hg
* Reported Mar 17 9:00 PM — Apr 1 9:00 PM, Campbell River, Weather by CustomWeather, © 2015

Note: Actual official high and low records may vary slightly from our data, if they occured in-between our weather recording intervals... More about our weather records

Advertising

Campbell River weather history for previous 24 hours

 ConditionsComfort  
Time TempWeatherWind HumidityBarometerVisibility
9:00 PM
Wed, Apr 1
43 °FPassing clouds.6 mph87%30.28 "Hg30 mi
8:00 PM43 °FScattered clouds.6 mph93%30.27 "Hg30 mi
7:00 PM45 °FScattered clouds.5 mph87%30.27 "Hg30 mi
6:00 PM46 °FScattered showers. Broken clouds.2 mph87%30.27 "Hg30 mi
5:00 PM50 °FScattered showers. Broken clouds.2 mph62%30.27 "Hg30 mi
4:00 PM50 °FScattered showers. Broken clouds.3 mph67%30.27 "Hg30 mi
3:00 PM48 °FScattered showers. Broken clouds.3 mph66%30.28 "Hg20 mi
2:00 PM48 °FBroken clouds.7 mph62%30.27 "Hg20 mi
1:00 PM48 °FBroken clouds.7 mph71%30.27 "Hg20 mi
12:00 PM48 °FPartly sunny.8 mph71%30.27 "Hg30 mi
11:00 AM46 °FPartly sunny.No wind76%30.27 "Hg30 mi
10:00 AM41 °FPartly sunny.3 mph93%30.27 "Hg30 mi
9:00 AM39 °FPartly sunny.2 mph93%30.26 "Hg30 mi
8:00 AM36 °FPartly sunny.No wind93%30.24 "Hg30 mi
7:00 AM34 °FPassing clouds.5 mph93%30.22 "Hg20 mi
6:00 AM34 °FMostly cloudy.3 mph93%30.22 "Hg15 mi
Weather by CustomWeather, © 2015

See weather overviewHow to use our weather pages